Weather in Artyshta

Russia / Kemerovo Oblast     54°10′42″N   86°16′43″E
temp.,
°C
wind,
m/s
gust,
m/s
humid.,
%
clouds,
%
prec.,
mm/h
press.,
hPa
HPBL,
m
26 february, fri
fri2601:00−19sw51284100 0.1 10261170
04:00−21sw41384100 0.0 10261269
07:00−23sw51288100 0.1 10291179
10:00−22wsw81486100 0.1 10311464
13:00−21sw81483100 0.2 10331336
16:00−19sw81483100 0.1 10331388
19:00−21sw51287100 0.1 1035950
22:00−22wsw41189100 0.0 1037818
27 february, sat
sat2701:00−23sw41090100 0.1 1038533
04:00−23sw3992100 0.1 1038599
07:00−24sw3890100 0.1 1038376
10:00−23sw4986100 0.0 1039641
13:00−20sw5883100 0.0 1039823
16:00−19sw4882100 0.0 1038901
19:00−21sw3590100 0.1 1039157
22:00−24ssw229496 0.0 104040
28 february, sun
sun2801:00−26ssw229591 0.0 104036
04:00−27s229432 0.0 104026
07:00−27s239518 0.0 104028
10:00−22sse359648 0.0 1040165
13:00−14ssw378071 0.0 1037779
16:00−11ssw3673100 0.0 1034976
19:00−13se3383100 0.0 103148
22:00−12se3893100 0.1 1029283
1 march, mon
mon101:00−10se41093100 0.2 1025353
04:00−9se41094100 0.4 1021388
07:00−7sse4995100 1.2 1019445
10:00−5ssw5992100 1.3 1016816
13:00−4sw61191100 1.8 10141059
16:00−3sw61286100 0.6 1013953
19:00−4sw61586100 0.6 1013713
22:00−4sw71686100 0.1 1013666
2 march, tue
tue201:00−3sw71588100 0.2 1012712
04:00−3sw71591100 0.3 1010714
07:00−3sw81688100 0.7 1011800
10:00−2wsw7128693 0.1 1012955
13:00−2wsw7128494 0.2 10131118
16:00−2wsw71284100 0.1 10131272
19:00−5wsw41088100 0.2 1014352
22:00−8wsw3890100 0.0 1016207